Regional Weather Roundup
Issued by NWS

Home | Current Version | Previous Version | Text Only | Print | Product List | Glossary Off
Versions: 1 2 3 4 5 6 7 8 9 10 11 12 13 14 15 16 17 18 19 20 21 22 23 24 25 26 27 28 29 30 31 32 33 34 35 36 37 38 39 40 41 42 43 44 45 46 47 48 49 50

000
ASUS43 KMKX 210600
RWRWI

WISCONSIN REGIONAL WEATHER ROUNDUP
NATIONAL WEATHER SERVICE MILWAUKEE/SULLIVAN WI
100 AM CDT TUE OCT 21 2014

NOTE: "FAIR" INDICATES FEW OR NO CLOUDS BELOW 12,000 FEET WITH NO
SIGNIFICANT WEATHER AND/OR OBSTRUCTIONS TO VISIBILITY.

WIZ001-002-006>008-014>016-023>028-210700-
NORTHWEST WISCONSIN

CITY           SKY/WX    TMP DP  RH WIND       PRES   REMARKS
SUPERIOR ARPT  CLOUDY    47  39  72 E13       30.13R
ASHLAND        CLOUDY    44  38  79 NE9       30.15R
6HR MIN TEMP:  44; 6HR MAX TEMP:  49;

HAYWARD        CLOUDY    46  39  76 NE6       30.11S
6HR MIN TEMP:  45; 6HR MAX TEMP:  50;

SIREN          CLOUDY    41  37  86 CALM      30.11S
CUMBERLAND     CLOUDY    45  37  76 NE3       30.10R
RICE LAKE      CLOUDY    45  40  82 N5        30.11R
CHETEK         CLOUDY    45  41  86 N6        30.10R
LADYSMITH      CLOUDY    46  39  76 N6        30.11R
EAU CLAIRE     NOT AVBL
MENOMONIE      CLEAR     42  38  84 N3        30.09R
NEW RICHMOND   CLEAR     35  35 100 N3        30.10R
OSCEOLA        CLEAR     35  35 100 CALM      30.13R
$$

WIZ003>005-009-010-017-018-210700-
NORTH CENTRAL WISCONSIN

CITY           SKY/WX    TMP DP  RH WIND       PRES   REMARKS
MANITOWISH WTR CLOUDY    39  39  99 NE5       30.10S
ARBOR VITAE    CLOUDY    42  38  86 N7        30.10R
WOODRUFF       CLOUDY    42  38  86 N7        30.10R
RHINELANDER    CLOUDY    39  35  86 N8G18     30.09R WCI  33
6HR MIN TEMP:  39; 6HR MAX TEMP:  44; 6HR PCP:  0.01;

EAGLE RIVER    CLOUDY    39  36  88 N8        30.08R WCI  34
LAND O LAKES   CLOUDY    39  37  90 N7        30.10R WCI  34
PHILLIPS       CLOUDY    41  38  87 NE10      30.10R
TOMAHAWK       MOCLDY    40  37  86 CALM      30.09S
MEDFORD        CLOUDY    44  39  84 N5        30.08R
MERRILL        CLOUDY    42  38  85 N6        30.08R
$$

WIZ029-030-035-036-043>047-210700-
CENTRAL WISCONSIN

CITY           SKY/WX    TMP DP  RH WIND       PRES   REMARKS
WAUSAU         CLOUDY    44  37  76 N7        30.07R
6HR MIN TEMP:  44; 6HR MAX TEMP:  49; 6HR PCP: TRACE;

MOSINEE        CLOUDY    43  39  87 N8        30.08R
MARSHFIELD     CLOUDY    48  39  71 N8        30.07R
6HR MIN TEMP:  48; 6HR MAX TEMP:  50;

STEVENS POINT  CLOUDY    44  38  78 N6        30.07S
WAUPACA        CLOUDY    49  41  74 N5        30.06S
WAUTOMA        NOT AVBL
WISC RAPIDS    CLOUDY    48  40  73 NE10      30.09R
6HR MIN TEMP:  48; 6HR MAX TEMP:  51;

CAMP DOUGLAS   NOT AVBL
$$

WIZ011>013-019>022-031-037>040-048>050-210700-
NORTHEAST WISCONSIN

CITY           SKY/WX    TMP DP  RH WIND       PRES   REMARKS
ANTIGO         MOCLDY    37  36  94 N6        30.07R WCI  33
SHAWANO        CLOUDY    46  39  75 N6        30.06S
OCONTO         CLOUDY    44  40  86 N7        30.05R
STURGEON BAY   CLOUDY    45  37  76 N17       30.03S
6HR MIN TEMP:  45; 6HR MAX TEMP:  48;

GREEN BAY      CLOUDY    45  39  79 N12       30.05R
6HR MIN TEMP:  45; 6HR MAX TEMP:  49; 6HR PCP: TRACE;

MANITOWOC      NOT AVBL
APPLETON       CLOUDY    45  36  70 N12G18    30.05S
CLINTONVILLE   CLOUDY    45  37  76 NW6       30.05F
OSHKOSH        CLOUDY    47  39  74 N13       30.04R
6HR MIN TEMP:  47; 6HR MAX TEMP:  51;

$$

WIZ032>034-041-042-053>061-210700-
SOUTHWEST WISCONSIN

CITY           SKY/WX    TMP DP  RH WIND       PRES   REMARKS
LA CROSSE      CLEAR     42  39  89 CALM      30.07R
6HR MIN TEMP:  41; 6HR MAX TEMP:  56;

SPARTA         CLEAR     37  35  96 CALM      30.07S
VIROQUA        CLEAR     43  38  83 CALM      30.05S
BOSCOBEL       CLEAR     38  35  89 CALM      30.07R FOG
6HR MIN TEMP:  38; 6HR MAX TEMP:  57;

PRAIRIE DU CHI CLEAR     42  38  86 CALM      30.06R
PLATTEVILLE    CLEAR     44  39  83 CALM      30.05S
$$

WIZ056-057-062-063-064-067-068-210700-
SOUTH CENTRAL WISCONSIN

CITY           SKY/WX    TMP DP  RH WIND       PRES   REMARKS
REEDSBURG      MOCLDY    47  39  73 CALM      30.05S
BARABOO/DELLS  CLOUDY    48  39  70 N6        30.05S
LONE ROCK      NOT AVBL
MINERAL POINT  CLEAR     43  37  81 CALM      30.04S
MADISON        CLOUDY    48  39  71 N6        30.04R
6HR MIN TEMP:  48; 6HR MAX TEMP:  53;

MIDDLETON      PTCLDY    46  39  76 N7        30.05R
WATERTOWN      CLOUDY    48  44  85 N6        30.03R
MONROE         CLEAR     46  39  76 N7        30.03S
JANESVILLE     CLOUDY    52  41  66 N5        30.02R
$$

WIZ051-052-058>065-066-070>072-210700-
SOUTHEAST WISCONSIN

CITY           SKY/WX    TMP DP  RH WIND       PRES   REMARKS
MILWAUKEE      CLOUDY    49  41  74 N9        30.01F
6HR MIN TEMP:  49; 6HR MAX TEMP:  53; 6HR PCP: TRACE;

WAUKESHA       CLOUDY    45  37  76 N6        30.03R
MILWAUKEE/TIMM CLOUDY    46  39  76 N7        30.02S
RACINE         CLOUDY    49  41  74 NW8       30.02S
6HR MIN TEMP:  49; 6HR MAX TEMP:  53;

BURLINGTON     CLOUDY    48  42  77 N8        30.01S
KENOSHA        CLOUDY    50  43  77 N8        30.01R
6HR MIN TEMP:  50; 6HR MAX TEMP:  53;

FOND DU LAC    CLOUDY    48  39  71 N12       30.04R
6HR MIN TEMP:  48; 6HR MAX TEMP:  51;

SHEBOYGAN      CLOUDY    45  40  82 N6        30.03R
6HR MIN TEMP:  45; 6HR MAX TEMP:  49;

WEST BEND      CLOUDY    45  39  81 N6        30.02S
JUNEAU         CLOUDY    47  42  83 N7        30.04S
$$

LSZ147-162-210700-
LAKE SUPERIOR

STATION/POSITION TIME  TEMP    WIND        PRES    WAVE
                       AIR SEA DIR/SP/G            HT/PER
                 (UTC) (F)     (DEG/KT/KT) (MB)    (FT/S)
W MID LAKE BUOY  0450   43 46   30/ 16/ 17 1021.0R   3/ 5
DEVILS ISLAND    0500   44      60/ 20/ 22 1021.3R
PORT WING        0500   48      70/  7/ 11 1020.3S
SAXON HARBOR     0500   47      60/ 13/ 16 1020.3R
$$

LMZ867-665-643>646-210700-
LAKE MICHIGAN

STATION/POSITION TIME  TEMP    WIND        PRES    WAVE
                       AIR SEA DIR/SP/G            HT/PER
                 (UTC) (F)     (DEG/KT/KT) (MB)    (FT/S)
CHAMBERS ISLAND  0500   46     330/ 16/ 21 1016.9F
N MID LAKE BUOY  0450   47 51  350/ 19/ 23 1015.5R   4/ 5
NORTHPORT PIER   0509   47     340/ 20/ 27 1016.3S
SISTER BAY       0527          360/ 24/ 29   N/A
KEWAUNEE LAKESHO 0500   47     360/  8/ 10 1015.8R
SHEBOYGAN LAKESH 0500   49 50  340/ 11/ 14 1016.8S
PORT WASHINGTON  0540   49     340/  5/  8 1017.3R
ATWATER BUOY     0500   51     340/ 10/ 14 1017.1
MILWAUKEE LAKESH 0500   50     320/  7/ 10   N/A
S MID LAKE BUOY  0450   51 54  350/ 17/ 23 1015.2F   3/ 6
KENOSHA   LAKESH 0500   51     340/  5/  8 1015.9S
$$

TC  - TEMPERATURE IN CELSIUS
VSB - VISIBILITY IN STATUTE MILES
WCI - WIND CHILL INDEX
HX  - HEAT INDEX




USA.gov is the U.S. government's official web portal to all federal, state and local government web resources and services.